Date,TemperatureHighF,TemperatureAvgF,TemperatureLowF,DewpointHighF,DewpointAvgF,DewpointLowF,HumidityHigh,HumidityAvg,HumidityLow,PressureMaxIn,PressureMinIn,WindSpeedMaxMPH,WindSpeedAvgMPH,GustSpeedMaxMPH,PrecipitationSumIn
2013-3-1,23,11,-1,11,1,-10,77,63,54,29.79,29.35,8,1,10,0.00
2013-3-2,21,2,-14,8,-7,-19,77,66,53,29.94,29.79,7,2,8,0.00
2013-3-3,36,14,-12,19,-2,-23,88,50,40,30.18,29.91,27,8,37,0.00
2013-3-4,39,32,28,17,12,9,44,42,40,30.26,30.03,26,14,36,0.00
2013-3-5,40,29,12,20,11,0,86,48,40,30.06,29.67,23,10,35,0.00
2013-3-6,38,28,9,17,11,-7,72,48,43,29.73,29.59,29,12,39,0.00
2013-3-7,41,37,32,19,16,14,49,42,39,29.59,29.26,42,19,55,0.00
2013-3-8,43,39,35,25,18,15,66,43,39,29.53,29.32,33,15,60,0.00
2013-3-9,40,34,27,25,20,17,79,55,44,29.88,29.53,24,10,37,0.00
2013-3-10,33,25,15,20,14,2,81,63,47,30.15,29.85,9,2,12,0.00
2013-3-11,24,20,5,17,12,-2,87,71,57,30.35,30.15,10,3,12,0.00
2013-3-12,25,8,-11,8,-4,-22,73,60,45,30.35,30.09,8,2,12,0.00
2013-3-13,20,2,-16,0,-22,-37,48,35,14,30.12,29.88,5,3,6,0.00
2013-3-14,22,-3,-28,-2,-29,-57,41,27,19,29.91,29.76,3,3,3,0.00
2013-3-15,21,-3,-23,-3,-24,-41,41,35,22,29.82,29.65,3,3,3,0.00
2013-3-16,24,-2,-22,-1,-23,-42,44,35,32,30.00,29.67,8,3,12,0.00
2013-3-17,25,0,-22,0,-21,-41,45,36,32,30.09,29.97,2,2,4,0.00
2013-3-18,24,5,-16,4,-15,-35,47,39,37,30.00,29.79,2,2,4,0.00
2013-3-19,19,0,-21,-2,-18,-36,44,41,34,29.97,29.85,2,2,4,0.00
2013-3-20,16,3,-13,-2,-15,-31,46,41,39,29.88,29.70,9,2,10,0.00
2013-3-21,21,12,4,0,-7,-13,46,41,35,29.91,29.79,28,10,38,0.00
2013-3-22,31,21,15,16,4,-5,74,48,39,29.82,29.53,34,18,46,0.00
2013-3-23,17,4,-21,10,-7,-35,76,62,46,29.85,29.59,12,8,12,0.00
2013-3-24,15,-5,-27,-2,-21,-41,48,46,46,29.79,29.59,8,8,8,0.00
2013-3-25,12,4,-5,-5,-12,-20,47,47,47,29.62,29.44,21,6,21,0.00
2013-3-26,9,-4,-18,-7,-19,-32,47,47,47,29.97,29.62,8,6,9,0.00
2013-3-27,17,-7,-32,-6,-25,-45,47,42,35,30.03,29.88,27,8,39,0.00
2013-3-28,30,22,13,10,2,-11,48,41,34,29.91,29.67,32,20,51,0.00
2013-3-29,44,34,27,21,15,9,50,46,39,29.76,29.67,32,15,45,0.00
2013-3-30,44,34,22,22,17,10,69,50,40,30.03,29.73,20,6,25,0.00
2013-3-31,45,32,22,27,19,12,85,62,39,30.09,29.94,11,3,14,0.00